DW5918 Weather Reports


Display with metric or nautical units.
time (UTC)temp
F
wind
direction
speed
MPH
gust
MPH
rain 1hr
in
rain 24hr
in
rain mn
in
humidity
%
barometer
mb
20260510123122 51 202 0.0 1.0 0.00 0.24 0.00 1 1013.1
20260510121539 51 202 0.0 1.0 0.00 0.24 0.00 1 1012.9
20260510120005 50 202 0.0 1.0 0.00 0.24 0.00 1 1013.1
20260510114546 49 202 0.0 1.0 0.00 0.24 0.00 1 1013.1
20260510113003 49 202 0.0 1.0 0.00 0.24 0.00 1 1013.0
20260510111555 49 203 0.0 3.0 0.00 0.24 0.00 1 1013.0
20260510110036 49 202 0.0 2.0 0.00 0.24 0.00 1 1012.7
20260510104605 49 202 0.0 1.0 0.00 0.28 0.00 1 1012.7
20260510101621 48 198 1.0 4.0 0.00 0.28 0.00 1 1012.3
20260510100047 48 244 0.0 1.0 0.00 0.28 0.00 1 1012.2
20260510094630 48 244 0.0 3.0 0.00 0.36 0.00 1 1012.0
20260510093045 48 243 0.0 2.0 0.00 0.36 0.00 1 1011.2
20260510091506 48 244 0.0 2.0 0.00 0.36 0.00 1 1011.3
20260510090057 48 247 0.0 2.0 0.00 0.36 0.00 1 1011.5
20260510084511 48 265 0.0 2.0 0.00 0.41 0.00 1 1011.7
20260510083106 48 267 0.0 5.0 0.00 0.41 0.00 1 1012.2
20260510081534 48 234 2.0 4.0 0.00 0.41 0.00 1 1012.3
20260510080110 48 249 1.0 3.0 0.00 0.41 0.00 1 1012.1
20260510074529 48 250 0.0 2.0 0.00 0.41 0.00 1 1012.3
20260510073120 47 250 0.0 4.0 0.00 0.41 0.00 1 1012.2
20260510071539 47 190 0.0 1.0 0.00 0.41 0.00 1 1012.0
20260510070131 47 208 0.0 3.0 0.00 0.41 0.00 1 1011.9
20260510064555 47 208 0.0 2.0 0.00 0.41 0.00 1 1012.1
20260510063135 47 252 0.0 1.0 0.00 0.41 0.00 1 1011.9
20260510061552 47 252 0.0 0.0 0.00 0.41 0.00 1 1012.0
20260510060024 47 252 0.0 1.0 0.00 0.41 0.00 1 1012.0
20260510054607 47 243 0.0 2.0 0.00 0.41 0.00 1 1011.9
20260510053020 48 244 0.0 2.0 0.00 0.41 0.00 1 1011.7
20260510051619 48 244 0.0 2.0 0.00 0.41 0.00 1 1012.2
20260510050027 48 244 1.0 3.0 0.00 0.41 0.00 1 1012.3
20260510044616 47 165 0.0 1.0 0.00 0.41 0.00 1 1012.0
20260510043030 48 165 0.0 2.0 0.00 0.41 0.00 1 1011.9
20260510041626 48 167 1.0 3.0 0.00 0.41 0.00 1 1012.0
20260510040057 49 167 0.0 3.0 0.00 0.41 0.00 1 1012.1
20260510034540 49 167 0.0 3.0 0.00 0.41 0.41 1 1012.0
20260510033129 49 165 0.0 3.0 0.00 0.41 0.41 1 1012.0
20260510031546 49 166 0.0 3.0 0.00 0.41 0.41 1 1012.2
20260510030135 49 165 0.0 1.0 0.00 0.41 0.41 1 1012.2
20260510024552 49 165 0.0 1.0 0.00 0.41 0.41 1 1012.2
20260510023010 49 166 0.0 2.0 0.00 0.41 0.41 1 1012.3
20260510021651 49 165 0.0 3.0 0.00 0.41 0.41 1 1012.1
20260510020014 49 166 0.0 3.0 0.00 0.41 0.41 1 1012.0
20260510014614 49 194 0.0 2.0 0.00 0.41 0.41 1 1012.4
20260510013031 49 196 0.0 2.0 0.00 0.41 0.41 1 1012.5
20260510011621 49 198 0.0 2.0 0.00 0.41 0.41 1 1012.6
20260510010043 49 198 0.0 2.0 0.00 0.41 0.41 1 1012.1
20260510004625 49 201 0.0 3.0 0.00 0.41 0.41 1 1011.9
20260510003046 49 201 0.0 2.0 0.00 0.41 0.41 1 1011.7
20260510001506 49 224 1.0 3.0 0.01 0.41 0.41 1 1011.6
20260510000058 49 223 0.0 2.0 0.01 0.41 0.41 1 1011.5
20260509234656 49 222 0.0 3.0 0.01 0.41 0.41 1 1011.4
20260509233109 49 227 1.0 4.0 0.01 0.41 0.41 1 1011.4
20260509231530 49 178 0.0 5.0 0.00 0.40 0.40 1 1011.3
20260509230118 49 184 0.0 3.0 0.00 0.40 0.40 1 1011.4
20260509224530 49 190 0.0 4.0 0.01 0.40 0.40 1 1011.4
20260509223117 49 194 0.0 4.0 0.01 0.40 0.40 1 1011.2
20260509221542 49 238 0.0 2.0 0.01 0.40 0.40 1 1011.2
20260509220002 49 265 0.0 2.0 0.02 0.40 0.40 1 1011.5
20260509214559 49 360 0.0 3.0 0.02 0.39 0.39 1 1011.5
20260509213019 49 265 0.0 2.0 0.03 0.39 0.39 1 1011.5
20260509211609 49 255 0.0 3.0 0.05 0.39 0.39 1 1011.6
20260509210020 49 262 0.0 4.0 0.06 0.38 0.38 1 1011.9
20260509204615 50 220 0.0 3.0 0.06 0.37 0.37 1 1011.9
20260509201633 50 203 1.0 3.0 0.05 0.34 0.34 1 1012.4
20260509200051 50 242 0.0 3.0 0.04 0.32 0.32 1 1012.4
20260509194631 51 213 0.0 2.0 0.04 0.31 0.31 1 1012.5
20260509193055 50 157 0.0 4.0 0.05 0.30 0.30 1 1012.6
20260509191511 50 188 0.0 2.0 0.04 0.28 0.28 1 1012.6
20260509190106 50 159 0.0 1.0 0.03 0.28 0.28 1 1012.5
20260509184514 49 159 0.0 1.0 0.02 0.27 0.27 1 1012.6
20260509183107 49 159 0.0 1.0 0.00 0.25 0.25 1 1012.6
20260509181521 49 160 0.0 0.0 0.01 0.25 0.25 1 1012.5
20260509180117 49 159 0.0 1.0 0.01 0.25 0.25 1 1012.6
20260509174530 48 159 0.0 1.0 0.01 0.25 0.25 1 1012.7
20260509173123 48 90 0.0 2.0 0.02 0.25 0.25 1 1013.0
20260509170004 47 89 0.0 1.0 0.01 0.24 0.24 1 1013.2
20260509164555 47 89 0.0 1.0 0.02 0.24 0.24 1 1013.4
20260509163010 48 89 0.0 1.0 0.01 0.23 0.23 1 1013.4
20260509161604 48 89 0.0 1.0 0.01 0.23 0.23 1 1013.6
20260509160015 47 88 0.0 1.0 0.01 0.23 0.23 1 1013.6
20260509154603 46 88 0.0 1.0 0.00 0.22 0.22 1 1013.7
20260509153043 46 88 0.0 1.0 0.00 0.22 0.22 1 1013.6
20260509151613 45 101 1.0 2.0 0.00 0.22 0.22 1 1013.5
20260509150031 44 101 0.0 3.0 0.01 0.22 0.22 1 1013.6
20260509144613 44 113 1.0 3.0 0.01 0.22 0.22 1 1013.6
20260509143040 43 76 1.0 3.0 0.01 0.22 0.22 1 1013.6
20260509141633 43 76 0.0 1.0 0.01 0.22 0.22 1 1013.9
20260509134515 42 77 0.0 3.0 0.02 0.21 0.21 7 1013.9
20260509133107 42 121 0.0 2.0 0.03 0.21 0.21 1 1014.1
20260509131529 42 44 0.0 2.0 0.03 0.21 0.21 1 1014.2
20260509130120 41 44 0.0 2.0 0.03 0.20 0.20 1 1014.2
20260509124527 41 44 0.0 2.0 0.02 0.19 0.19 3 1014.3